[[{"header":{"parameterUnit":"m.s-1","parameterCategory":1,"la1":30.2991,"la2":30.254,"lo1":-89.0895,"lo2":-89.0444,"dy":0.0017,"dx":0.0017,"nx":28,"ny":28,"refTime":"2024-09-02T09:00:00:Z","depth":0,"parameterNumber":2,"parameterNumberName":"U-component_of_WINDS"},"data":[0,0,0,0,0,0,0,0,0,0,0,0,0,0,0,0,0,0,0,0,0,0,0,0,0,0,0,0,0,0,0,0,0,0,0,0,0,0,0,0,0,0,0,0,0,0,0,0,0,0,0,0,0,0,0,0,0,0,-0.5031,-0.503,0,-0.4961,-0.496,-0.4959,-0.4946,-0.4946,-0.4947,-0.4947,-0.4872,-0.4869,-0.4867,0,0,0,0,0,0,0,0,0,0,0,0,0,-0.5148,-0.5146,-0.5031,-0.503,-0.5029,-0.4961,-0.496,-0.4959,-0.4945,-0.4946,-0.4947,-0.4947,-0.4873,-0.487,-0.4867,0,0,0,0,0,0,0,0,0,0,0,0,0,-0.5089,-0.5145,-0.5031,-0.5014,-0.5012,-0.4961,-0.496,-0.4959,-0.4945,-0.4946,-0.4947,-0.4948,-0.4874,-0.487,-0.4866,-0.4826,0,0,-0.4855,-0.4853,0,0,0,0,0,0,0,0,-0.5093,-0.5085,-0.5018,-0.5015,-0.5013,-0.4963,-0.4974,-0.4914,-0.4945,-0.4971,-0.4947,-0.4948,-0.4901,-0.4895,-0.488,-0.4823,-0.482,-0.4854,-0.4852,-0.485,-0.4849,0,0,0,0,0,0,0,-0.5097,-0.5088,-0.5003,-0.5017,-0.5014,-0.5009,-0.5001,-0.4962,-0.4932,-0.4968,-0.4967,-0.4959,-0.49,-0.4884,-0.4878,-0.4818,-0.4854,-0.4851,-0.4849,-0.4847,-0.4722,-0.4721,0,0,0,0,0,0,-0.5104,-0.5092,-0.5005,-0.5001,-0.5056,-0.5006,-0.4998,-0.4978,-0.4932,-0.4926,-0.4959,-0.4959,-0.489,-0.4883,-0.4876,-0.4825,-0.485,-0.4847,-0.4845,-0.4723,-0.4722,-0.4721,0,0,0,0,0,0,-0.5107,-0.5097,-0.5008,-0.5046,-0.5034,-0.5003,-0.4981,-0.4976,-0.496,-0.4925,-0.4919,-0.4948,-0.489,-0.4881,-0.4838,-0.4822,-0.4845,-0.4842,-0.4724,-0.4723,-0.4721,-0.4723,0,0,0,0,0,0,-0.511,-0.5098,-0.5084,-0.5046,-0.5032,-0.4974,-0.498,-0.4974,-0.4954,-0.4954,-0.4914,-0.4908,-0.489,-0.4844,-0.4835,-0.4817,-0.4839,-0.4726,-0.4724,-0.4722,-0.4724,-0.4722,-0.472,0,0,0,0,0,-0.5115,-0.5087,-0.5083,-0.5073,-0.5014,-0.4973,-0.4965,-0.4947,-0.4953,-0.4937,-0.4914,-0.4909,-0.4825,-0.484,-0.4829,-0.481,-0.4727,-0.4724,-0.4722,-0.4726,-0.4722,-0.472,0,0,0,0,0,0,-0.5123,-0.5082,-0.5077,-0.5037,-0.5008,-0.4971,-0.4951,-0.4944,-0.4913,-0.4914,-0.4891,-0.4882,-0.484,-0.4821,-0.4838,-0.4768,-0.4776,-0.4771,-0.4782,-0.4779,-0.4777,-0.4782,-0.4836,0,0,0,0,0,-0.512,-0.5092,-0.5056,-0.5024,-0.501,-0.4983,-0.4964,-0.4952,-0.4922,-0.491,-0.4884,-0.4853,-0.482,-0.4798,-0.4766,-0.4721,-0.4711,-0.4702,-0.47,-0.4698,-0.4694,-0.4667,-0.4663,-0.4713,-0.4713,-0.4713,0,0,-0.5114,-0.5088,-0.5071,-0.5025,-0.5002,-0.4971,-0.4973,-0.4941,-0.4917,-0.4904,-0.4863,-0.4842,-0.4806,-0.4762,-0.4742,-0.4745,-0.4678,-0.4695,-0.4694,-0.4691,-0.4665,-0.466,-0.4656,-0.4711,-0.4711,-0.4712,0,0,-0.5087,-0.5065,-0.5035,-0.5012,-0.4977,-0.4958,-0.4951,-0.4914,-0.49,-0.4858,-0.4847,-0.4818,-0.4761,-0.4735,-0.4715,-0.4676,-0.4669,-0.4665,-0.4653,-0.4627,-0.4623,-0.4619,-0.4604,-0.4599,-0.4662,-0.4662,-0.4662,0,-0.5084,-0.5039,-0.502,-0.4988,-0.4967,-0.4954,-0.4922,-0.49,-0.4856,-0.4841,-0.4845,-0.4772,-0.4747,-0.4696,-0.4686,-0.4671,-0.466,-0.467,-0.4625,-0.4622,-0.4618,-0.4603,-0.4598,-0.4662,-0.4662,-0.4662,-0.4662,0,-0.5036,-0.5004,-0.4984,-0.4942,-0.4918,-0.4887,-0.4861,-0.4839,-0.4829,-0.4809,-0.4765,-0.4734,-0.4695,-0.4681,-0.4671,-0.4628,-0.4631,-0.463,-0.4638,-0.4613,-0.4599,-0.4593,-0.4661,-0.4661,-0.4661,-0.4661,0,0,-0.5014,-0.4961,-0.4954,-0.4934,-0.4893,-0.4868,-0.4834,-0.4796,-0.4777,-0.4746,-0.4716,-0.4667,-0.4666,-0.4643,-0.4628,-0.4606,-0.4575,-0.4608,-0.4606,-0.4602,-0.4524,-0.4524,-0.4518,-0.457,-0.4568,-0.4567,-0.4527,0,-0.4982,-0.4924,-0.4905,-0.4855,-0.4824,-0.4811,-0.4781,-0.4751,-0.4732,-0.4702,-0.4679,-0.4645,-0.4646,-0.4632,-0.4609,-0.4584,-0.4559,-0.4586,-0.454,-0.4539,-0.455,-0.4511,-0.4512,-0.4475,-0.4521,-0.452,-0.4519,0,-0.4937,-0.4906,-0.4854,-0.4816,-0.4802,-0.4776,-0.4739,-0.471,-0.4676,-0.4663,-0.4636,-0.4623,-0.4585,-0.4594,-0.454,-0.4559,-0.4539,-0.4523,-0.4521,-0.4516,-0.4528,-0.4505,-0.4463,-0.4457,-0.4511,-0.4511,-0.4512,0,-0.4926,-0.4871,-0.4832,-0.4816,-0.477,-0.4752,-0.4731,-0.4698,-0.4675,-0.4642,-0.4626,-0.4588,-0.4567,-0.4537,-0.4513,-0.4522,-0.446,-0.4468,-0.4447,-0.4448,-0.4435,-0.4436,-0.4389,-0.4422,-0.4422,-0.4422,-0.4423,0,-0.4892,-0.4861,-0.4826,-0.4803,-0.4766,-0.4743,-0.4706,-0.4685,-0.4655,-0.4625,-0.461,-0.4582,-0.4552,-0.4519,-0.45,-0.4457,-0.4448,-0.4435,-0.443,-0.4436,-0.4438,-0.4422,-0.4424,-0.4421,-0.4421,-0.4422,-0.4422,0,-0.4874,-0.485,-0.4807,-0.4767,-0.4756,-0.473,-0.4695,-0.467,-0.4649,-0.4611,-0.4601,-0.4567,-0.4527,-0.45,-0.4449,-0.4436,-0.439,-0.4385,-0.4402,-0.4399,-0.438,-0.4382,-0.4321,-0.4311,-0.4351,-0.4351,-0.4351,0,-0.4855,-0.483,-0.4787,-0.4767,-0.4747,-0.4714,-0.4691,-0.4666,-0.4642,-0.46,-0.4579,-0.4539,-0.4505,-0.4442,-0.4412,-0.4372,-0.4366,-0.4348,-0.436,-0.4367,-0.4365,-0.4367,-0.4363,-0.4346,-0.4346,-0.4346,-0.4345,0,-0.4822,-0.4811,-0.4779,-0.4742,-0.4715,-0.4685,-0.4654,-0.4638,-0.4607,-0.4581,-0.4541,-0.4515,-0.4462,-0.4421,-0.4378,-0.4355,-0.4344,-0.4342,-0.4334,-0.434,-0.4351,-0.4344,-0.4396,-0.4343,-0.4343,-0.4344,-0.4344,-0.4344,-0.4802,-0.4779,-0.4745,-0.4709,-0.4683,-0.4654,-0.4629,-0.4604,-0.4571,-0.4527,-0.4514,-0.4472,-0.4435,-0.4376,-0.4352,-0.4317,-0.4318,-0.4308,-0.4305,-0.4303,-0.4303,-0.4356,-0.4309,-0.4309,-0.4309,-0.4309,-0.4309,0,-0.4768,-0.4745,-0.4712,-0.467,-0.4641,-0.4635,-0.4599,-0.4575,-0.4539,-0.4506,-0.4473,-0.4426,-0.4385,-0.4351,-0.4309,-0.4287,-0.4281,-0.4277,-0.4278,-0.4273,-0.4305,-0.4315,-0.4283,-0.4283,-0.4283,-0.4283,-0.4283,-0.4283,-0.4747,-0.4707,-0.4691,-0.4637,-0.4614,-0.4574,-0.4554,-0.4526,-0.45,-0.4448,-0.4415,-0.4393,-0.4359,-0.4314,-0.4275,-0.4266,-0.4251,-0.4248,-0.4237,-0.4268,-0.4271,-0.4274,-0.4283,-0.4245,-0.4245,-0.4208,-0.4208,-0.4207]},{"header":{"parameterUnit":"m.s-1","parameterCategory":1,"la1":30.2991,"la2":30.254,"lo1":-89.0895,"lo2":-89.0444,"dy":0.0017,"dx":0.0017,"nx":28,"ny":28,"refTime":"2024-09-02T09:00:00:Z","depth":0,"parameterNumber":3,"parameterNumberName":"V-component_of_WINDS"},"data":[0,0,0,0,0,0,0,0,0,0,0,0,0,0,0,0,0,0,0,0,0,0,0,0,0,0,0,0,0,0,0,0,0,0,0,0,0,0,0,0,0,0,0,0,0,0,0,0,0,0,0,0,0,0,0,0,0,0,-1.407,-1.4069,0,-1.4059,-1.4059,-1.4058,-1.4092,-1.4093,-1.4094,-1.4095,-1.4082,-1.408,-1.4079,0,0,0,0,0,0,0,0,0,0,0,0,0,-1.4116,-1.4115,-1.407,-1.4069,-1.4069,-1.4059,-1.4059,-1.4058,-1.4092,-1.4093,-1.4094,-1.4095,-1.4082,-1.408,-1.4079,0,0,0,0,0,0,0,0,0,0,0,0,0,-1.41,-1.4115,-1.407,-1.4085,-1.4086,-1.4059,-1.4059,-1.4058,-1.4091,-1.4093,-1.4094,-1.4096,-1.4082,-1.4081,-1.4079,-1.4036,0,0,-1.4073,-1.4072,0,0,0,0,0,0,0,0,-1.41,-1.4098,-1.4083,-1.4084,-1.4085,-1.4078,-1.407,-1.4051,-1.4091,-1.4089,-1.4095,-1.4097,-1.4079,-1.4077,-1.4072,-1.4035,-1.4035,-1.4072,-1.4071,-1.407,-1.407,0,0,0,0,0,0,0,-1.4102,-1.4098,-1.4065,-1.4082,-1.4084,-1.4091,-1.409,-1.4067,-1.4076,-1.4089,-1.4092,-1.409,-1.408,-1.4074,-1.4072,-1.4034,-1.4072,-1.4071,-1.407,-1.4069,-1.396,-1.3958,0,0,0,0,0,0,-1.4101,-1.4099,-1.4066,-1.4065,-1.4097,-1.4089,-1.4088,-1.4079,-1.4076,-1.4077,-1.4089,-1.4092,-1.4076,-1.4074,-1.4072,-1.402,-1.407,-1.4069,-1.4067,-1.3962,-1.3959,-1.3958,0,0,0,0,0,0,-1.4102,-1.4098,-1.4066,-1.4083,-1.4079,-1.4086,-1.4076,-1.4078,-1.4072,-1.4076,-1.4077,-1.4081,-1.4078,-1.4074,-1.4044,-1.402,-1.4068,-1.4066,-1.3964,-1.3961,-1.3959,-1.3916,0,0,0,0,0,0,-1.4103,-1.4098,-1.4083,-1.4082,-1.4078,-1.404,-1.4074,-1.4076,-1.4068,-1.4072,-1.4069,-1.407,-1.4078,-1.4047,-1.4042,-1.4018,-1.4064,-1.3966,-1.3962,-1.3959,-1.392,-1.3913,-1.3907,0,0,0,0,0,-1.4105,-1.4071,-1.4082,-1.4077,-1.4059,-1.4038,-1.4036,-1.4047,-1.4066,-1.405,-1.4053,-1.407,-1.4023,-1.4044,-1.4039,-1.4013,-1.3967,-1.3963,-1.396,-1.3923,-1.3914,-1.3907,0,0,0,0,0,0,-1.4068,-1.4071,-1.4083,-1.4049,-1.4043,-1.4044,-1.4024,-1.4038,-1.4026,-1.403,-1.4044,-1.4043,-1.401,-1.4009,-1.4031,-1.3971,-1.3998,-1.3993,-1.3972,-1.3964,-1.3957,-1.3958,-1.4063,0,0,0,0,0,-1.4056,-1.4039,-1.4043,-1.4012,-1.4009,-1.4017,-1.4008,-1.4017,-1.4012,-1.4009,-1.4009,-1.4003,-1.3986,-1.3975,-1.3961,-1.392,-1.3919,-1.3901,-1.3894,-1.3888,-1.3883,-1.386,-1.3851,-1.3945,-1.3945,-1.3945,0,0,-1.4031,-1.4031,-1.4019,-1.4005,-1.4001,-1.3983,-1.4014,-1.3994,-1.3979,-1.4006,-1.3977,-1.3977,-1.397,-1.3934,-1.3918,-1.3932,-1.3857,-1.3883,-1.3879,-1.3877,-1.3855,-1.3846,-1.3838,-1.3942,-1.3943,-1.3943,0,0,-1.3975,-1.3974,-1.3947,-1.3943,-1.3938,-1.3943,-1.3937,-1.3935,-1.3936,-1.3908,-1.3927,-1.391,-1.3882,-1.3876,-1.3869,-1.3809,-1.3824,-1.3804,-1.3769,-1.3745,-1.3738,-1.3731,-1.3708,-1.37,-1.38,-1.3799,-1.3799,0,-1.3944,-1.3918,-1.3932,-1.3909,-1.3901,-1.3925,-1.3897,-1.3892,-1.3882,-1.3875,-1.3891,-1.3856,-1.3853,-1.3815,-1.3801,-1.3795,-1.3787,-1.3804,-1.3738,-1.3732,-1.3726,-1.3704,-1.3695,-1.3797,-1.3797,-1.3798,-1.3798,0,-1.3879,-1.386,-1.3839,-1.3828,-1.3818,-1.3793,-1.3802,-1.379,-1.38,-1.3803,-1.3773,-1.3771,-1.3755,-1.3747,-1.3757,-1.371,-1.3718,-1.3736,-1.3764,-1.3714,-1.3694,-1.3686,-1.3793,-1.3794,-1.3795,-1.3796,0,0,-1.38,-1.3797,-1.3789,-1.3783,-1.3779,-1.3764,-1.3739,-1.3724,-1.3713,-1.3705,-1.3683,-1.3659,-1.3675,-1.3667,-1.3676,-1.3656,-1.3607,-1.3676,-1.3676,-1.3662,-1.3552,-1.3538,-1.3528,-1.3617,-1.3615,-1.3614,-1.3552,0,-1.3743,-1.3702,-1.3713,-1.3671,-1.3652,-1.3674,-1.3652,-1.3646,-1.3648,-1.3632,-1.3634,-1.3616,-1.3639,-1.3634,-1.3616,-1.3617,-1.3584,-1.3621,-1.3595,-1.3594,-1.3595,-1.3518,-1.3503,-1.3444,-1.3545,-1.3543,-1.3542,0,-1.3672,-1.3661,-1.3617,-1.3614,-1.3606,-1.3587,-1.3573,-1.3558,-1.3551,-1.3554,-1.3545,-1.3557,-1.3531,-1.356,-1.3524,-1.3549,-1.3539,-1.3537,-1.3535,-1.3532,-1.3564,-1.351,-1.3426,-1.3417,-1.353,-1.3531,-1.3532,0,-1.3617,-1.3591,-1.3561,-1.3556,-1.3552,-1.3537,-1.3534,-1.3529,-1.3519,-1.3507,-1.35,-1.3485,-1.3476,-1.3464,-1.3471,-1.3492,-1.3433,-1.3463,-1.3433,-1.3433,-1.3418,-1.3419,-1.333,-1.3415,-1.3415,-1.3415,-1.3415,0,-1.3552,-1.3523,-1.3535,-1.3517,-1.3485,-1.3498,-1.3465,-1.3465,-1.346,-1.3441,-1.3459,-1.344,-1.3452,-1.3434,-1.344,-1.3407,-1.3404,-1.3404,-1.3405,-1.3401,-1.3401,-1.3394,-1.3397,-1.3413,-1.3413,-1.3414,-1.3414,0,-1.3484,-1.3491,-1.3459,-1.3458,-1.3457,-1.3433,-1.3431,-1.3413,-1.3416,-1.3391,-1.3386,-1.3391,-1.337,-1.3377,-1.3355,-1.3359,-1.3317,-1.3325,-1.3319,-1.332,-1.3289,-1.3291,-1.3191,-1.3177,-1.3273,-1.3272,-1.3271,0,-1.3441,-1.342,-1.3416,-1.3404,-1.34,-1.3382,-1.3371,-1.3383,-1.3371,-1.336,-1.3343,-1.3324,-1.3309,-1.3275,-1.3276,-1.3258,-1.3264,-1.323,-1.3262,-1.3258,-1.3262,-1.3262,-1.3259,-1.3224,-1.3222,-1.3222,-1.3221,0,-1.3364,-1.3369,-1.3353,-1.3338,-1.3325,-1.3314,-1.3304,-1.3294,-1.3304,-1.329,-1.3269,-1.3257,-1.3234,-1.3214,-1.3198,-1.3195,-1.3208,-1.3211,-1.3203,-1.3198,-1.3195,-1.3194,-1.33,-1.3213,-1.3214,-1.3214,-1.3215,-1.3215,-1.3307,-1.3288,-1.3282,-1.3263,-1.3257,-1.3247,-1.323,-1.323,-1.3213,-1.3196,-1.3203,-1.3179,-1.3171,-1.3151,-1.3145,-1.3125,-1.3138,-1.3126,-1.3123,-1.3119,-1.3115,-1.3199,-1.3122,-1.3122,-1.3123,-1.3123,-1.3123,0,-1.3229,-1.3226,-1.3209,-1.3195,-1.318,-1.3195,-1.3185,-1.3171,-1.3149,-1.3141,-1.3125,-1.31,-1.3081,-1.308,-1.3061,-1.3045,-1.3051,-1.304,-1.304,-1.3039,-1.3105,-1.3113,-1.3035,-1.3035,-1.3035,-1.3035,-1.3035,-1.3035,-1.3187,-1.3155,-1.3158,-1.3123,-1.312,-1.3096,-1.3089,-1.3079,-1.3072,-1.3044,-1.3028,-1.3027,-1.3021,-1.3002,-1.2984,-1.2984,-1.2976,-1.2962,-1.2964,-1.3026,-1.3034,-1.3043,-1.305,-1.296,-1.296,-1.2899,-1.2898,-1.2898]}]]